Weather History for Mount Holly, NJ

Change the Weather History Date:

Sunday, July 21, 2013

  Actual Average (KWRI) Record (KWRI)
Temperature  
Mean Temperature 80 °F -  
Max Temperature 89 °F 83 °F 96 °F (2011)
Min Temperature 72 °F 64 °F 57 °F (2000)
Cooling Degree Days 14    
Growing Degree Days 30 (Base 50)    
Moisture  
Dew Point 71 °F    
Average Humidity 84    
Maximum Humidity 94    
Minimum Humidity 57    
Precipitation  
Precipitation 0.56 in - - ()
Sea Level Pressure  
Sea Level Pressure 29.91 in    
Wind  
Wind Speed 3 mph (East)    
Max Wind Speed 20 mph    
Max Gust Speed 53 mph    
Visibility 7 miles    
Events Rain    
Averages and records for this station are not official NWS values.
T = Trace of Precipitation, MM = Missing Value Source: NWS Daily Summary

Daily Weather History Graph

Daily Weather History Graph

Search for Another Location

Airport:

Trip Planner

Search our weather history database for the weather conditions in past years. The results will help you decide how hot, cold, wet, or windy it might be!

Date:

Astronomy

Jul. 21, 2013 Rise Set
Actual Time 5:48 AM EDT 8:22 PM EDT
Civil Twilight 5:17 AM EDT 8:53 PM EDT
Nautical Twilight 4:38 AM EDT 9:32 PM EDT
Astronomical Twilight 3:54 AM EDT 10:16 PM EDT
Moon 7:18 PM EDT (7/21) 4:31 AM EDT (7/21)
Length of Visible Light 15h 36m
Length of Day
14h 34m
Waxing Gibbous, 98% of the Moon is Illuminated
Jul 21
Waxing Gibbous
Jul 22
Full
Jul 29
Last Quarter
Aug 6
New
Aug 14
First Quarter

Hourly Weather History & Observations

Time (EDT) Temp. Heat Index Dew Point Humidity Pressure Visibility Wind Dir Wind Speed Gust Speed Precip Events Conditions
12:54 AM 73.0 °F - 70.0 °F 90% 29.87 in 8.0 mi SE 3.5 mph - 0.12 in   Overcast
1:54 AM 72.0 °F - 70.0 °F 93% 29.87 in 8.0 mi Variable 3.5 mph - 0.06 in Rain Light Rain
2:54 AM 72.0 °F - 70.0 °F 93% 29.86 in 7.0 mi Calm Calm - 0.04 in   Mostly Cloudy
3:54 AM 72.0 °F - 70.0 °F 93% 29.86 in 6.0 mi Calm Calm - 0.01 in   Partly Cloudy
4:54 AM 72.0 °F - 70.0 °F 93% 29.87 in 5.0 mi Calm Calm - 0.01 in   Clear
5:54 AM 72.0 °F - 70.0 °F 93% 29.88 in 5.0 mi Calm Calm - N/A   Clear
6:54 AM 73.0 °F - 71.1 °F 93% 29.89 in 5.0 mi Calm Calm - 0.01 in   Clear
7:54 AM 75.0 °F - 72.0 °F 90% 29.91 in 6.0 mi SW 4.6 mph - N/A   Clear
8:54 AM 75.9 °F - 72.0 °F 87% 29.91 in 7.0 mi Calm Calm - N/A   Clear
9:54 AM 77.0 °F - 72.0 °F 84% 29.91 in 8.0 mi Calm Calm - N/A   Clear
10:54 AM 81.0 °F 85.2 °F 72.0 °F 74% 29.92 in 10.0 mi Calm Calm - N/A   Scattered Clouds
11:23 AM 84.2 °F 90.9 °F 73.4 °F 70% 29.92 in 10.0 mi Variable 3.5 mph - N/A   Mostly Cloudy
11:52 AM 84.2 °F 89.6 °F 71.6 °F 66% 29.92 in 9.0 mi Calm Calm - N/A   Scattered Clouds
11:54 AM 84.9 °F 90.7 °F 72.0 °F 65% 29.92 in 9.0 mi Calm Calm - N/A   Scattered Clouds
12:54 PM 86.0 °F 92.2 °F 72.0 °F 63% 29.92 in 10.0 mi Calm Calm - N/A   Partly Cloudy
1:54 PM 87.1 °F 92.8 °F 71.1 °F 59% 29.92 in 10.0 mi Calm Calm - N/A   Scattered Clouds
2:54 PM 87.1 °F 92.0 °F 70.0 °F 57% 29.91 in 10.0 mi Calm Calm - N/A   Partly Cloudy
3:54 PM 84.0 °F 89.6 °F 72.0 °F 67% 29.90 in 10.0 mi NNE 10.4 mph - N/A   Mostly Cloudy
4:28 PM 75.2 °F - 71.6 °F 89% 29.90 in 1.8 mi NNW 18.4 mph 25.3 mph 0.01 in Rain Rain
4:37 PM 75.2 °F - 64.4 °F 69% 29.95 in 0.2 mi West 19.6 mph 52.9 mph 0.02 in Rain Heavy Rain
5:54 PM 75.0 °F - 71.1 °F 87% 29.92 in 3.0 mi Calm Calm - 0.07 in Rain Rain
5:58 PM 75.2 °F - 71.6 °F 89% 29.93 in 1.8 mi Calm Calm - 0.00 in Rain Heavy Rain
6:05 PM 73.4 °F - 71.6 °F 94% 29.93 in 0.8 mi Calm Calm - N/A Rain Heavy Rain
6:21 PM 73.4 °F - 71.6 °F 94% 29.91 in 1.2 mi East 8.1 mph - N/A Rain Rain
6:26 PM 73.4 °F - 71.6 °F 94% 29.91 in 3.0 mi ESE 8.1 mph - N/A Rain Light Rain
6:54 PM 73.9 °F - 72.0 °F 93% 29.92 in 6.0 mi ESE 4.6 mph - N/A   Partly Cloudy
7:54 PM 73.0 °F - 70.0 °F 90% 29.92 in 10.0 mi Variable 3.5 mph - 0.05 in   Clear
8:54 PM 72.0 °F - 70.0 °F 93% 29.94 in 10.0 mi Calm Calm - 0.05 in   Clear
9:54 PM 72.0 °F - 70.0 °F 93% 29.94 in 10.0 mi Calm Calm - 0.05 in   Clear
10:54 PM 72.0 °F - 70.0 °F 93% 29.94 in 8.0 mi Calm Calm - 0.05 in   Clear
11:54 PM 72.0 °F - 69.1 °F 91% 29.94 in 7.0 mi Calm Calm - 0.04 in   Clear